Time,TemperatureF,DewpointF,PressureIn,WindDirection,WindDirectionDegrees,WindSpeedMPH,WindSpeedGustMPH,Humidity,HourlyPrecipIn,Conditions,Clouds,dailyrainin,SoftwareType,DateUTC
2013-05-01 00:01:00,41.0,26.9,29.87,SSW,203,0.0,1.1,57,0.00,,,0.00,WUHU216HW,2013-05-01 04:01:00,
2013-05-01 00:02:00,41.0,26.9,29.87,SSW,203,0.0,1.1,57,0.00,,,0.00,WUHU216HW,2013-05-01 04:02:00,
2013-05-01 00:05:00,40.9,26.7,29.87,SSW,203,1.1,1.1,57,0.00,,,0.00,WUHU216HW,2013-05-01 04:05:00,
2013-05-01 00:10:00,40.9,27.2,29.87,SSW,203,0.0,1.1,58,0.00,,,0.00,WUHU216HW,2013-05-01 04:10:00,
2013-05-01 00:15:00,40.7,27.0,29.87,SSW,203,0.4,0.9,58,0.00,,,0.00,WUHU216HW,2013-05-01 04:15:00,
2013-05-01 00:20:00,40.5,26.8,29.87,SSW,203,0.7,1.6,58,0.00,,,0.00,WUHU216HW,2013-05-01 04:20:00,
2013-05-01 00:25:00,40.3,27.1,29.87,SSW,203,0.4,1.6,59,0.00,,,0.00,WUHU216HW,2013-05-01 04:25:00,
2013-05-01 00:30:00,40.1,26.9,29.87,SSW,203,0.4,0.7,59,0.00,,,0.00,WUHU216HW,2013-05-01 04:30:00,
2013-05-01 00:35:00,40.0,27.2,29.88,SSW,203,0.0,0.7,60,0.00,,,0.00,WUHU216HW,2013-05-01 04:35:00,
2013-05-01 00:40:00,39.6,26.8,29.88,SSW,203,1.1,1.1,60,0.00,,,0.00,WUHU216HW,2013-05-01 04:40:00,
2013-05-01 00:46:00,39.4,27.0,29.88,SSW,203,0.4,1.1,61,0.00,,,0.00,WUHU216HW,2013-05-01 04:46:00,
2013-05-01 00:51:00,39.2,26.8,29.88,SSW,203,0.0,1.1,61,0.00,,,0.00,WUHU216HW,2013-05-01 04:51:00,
2013-05-01 00:56:00,39.1,26.6,29.88,SSW,203,0.0,0.4,61,0.00,,,0.00,WUHU216HW,2013-05-01 04:56:00,
2013-05-01 01:01:00,38.9,26.6,29.88,SSW,203,0.0,0.0,61,0.00,,,0.00,WUHU216HW,2013-05-01 05:01:00,
2013-05-01 01:06:00,38.7,26.7,29.88,SSW,203,0.0,0.0,62,0.00,,,0.00,WUHU216HW,2013-05-01 05:06:00,
2013-05-01 01:11:00,38.5,26.6,29.88,SSW,203,0.0,0.0,62,0.00,,,0.00,WUHU216HW,2013-05-01 05:11:00,
2013-05-01 01:16:00,38.3,26.4,29.88,SSW,203,0.4,0.4,62,0.00,,,0.00,WUHU216HW,2013-05-01 05:16:00,
2013-05-01 01:22:00,38.3,26.8,29.88,SSW,203,0.4,1.8,63,0.00,,,0.00,WUHU216HW,2013-05-01 05:22:00,
2013-05-01 01:27:00,38.3,26.8,29.88,SSW,203,0.0,1.8,63,0.00,,,0.00,WUHU216HW,2013-05-01 05:27:00,
2013-05-01 01:32:00,38.2,26.7,29.88,SSW,203,0.0,0.7,63,0.00,,,0.00,WUHU216HW,2013-05-01 05:32:00,
2013-05-01 01:37:00,38.0,26.5,29.88,SSW,203,0.7,0.7,63,0.00,,,0.00,WUHU216HW,2013-05-01 05:37:00,
2013-05-01 01:42:00,38.0,26.5,29.88,SSW,203,1.1,1.1,63,0.00,,,0.00,WUHU216HW,2013-05-01 05:42:00,
2013-05-01 01:47:00,37.8,26.3,29.88,SSW,203,0.0,1.1,63,0.00,,,0.00,WUHU216HW,2013-05-01 05:47:00,
2013-05-01 01:52:00,37.8,26.3,29.88,SSW,203,0.0,0.9,63,0.00,,,0.00,WUHU216HW,2013-05-01 05:52:00,
2013-05-01 01:57:00,37.4,26.0,29.88,SSW,203,0.0,0.0,63,0.00,,,0.00,WUHU216HW,2013-05-01 05:57:00,
2013-05-01 02:03:00,37.3,26.2,29.88,SSW,203,0.0,0.0,64,0.00,,,0.00,WUHU216HW,2013-05-01 06:03:00,
2013-05-01 02:08:00,37.1,26.0,29.89,SSW,203,0.0,0.4,64,0.00,,,0.00,WUHU216HW,2013-05-01 06:08:00,
2013-05-01 02:13:00,37.1,26.4,29.89,SSW,203,0.4,0.4,65,0.00,,,0.00,WUHU216HW,2013-05-01 06:13:00,
2013-05-01 02:18:00,36.9,26.2,29.89,SSW,203,0.7,1.1,65,0.00,,,0.00,WUHU216HW,2013-05-01 06:18:00,
2013-05-01 02:23:00,36.7,26.0,29.89,SSW,203,0.0,1.1,65,0.00,,,0.00,WUHU216HW,2013-05-01 06:23:00,
2013-05-01 02:28:00,36.7,26.5,29.89,SSW,203,0.7,1.1,66,0.00,,,0.00,WUHU216HW,2013-05-01 06:28:00,
2013-05-01 02:33:00,36.5,26.3,29.89,SSW,203,1.1,1.1,66,0.00,,,0.00,WUHU216HW,2013-05-01 06:33:00,
2013-05-01 02:39:00,36.4,26.5,29.89,SSW,203,0.2,1.1,67,0.00,,,0.00,WUHU216HW,2013-05-01 06:39:00,
2013-05-01 02:44:00,36.4,26.5,29.89,SSW,203,0.0,1.1,67,0.00,,,0.00,WUHU216HW,2013-05-01 06:44:00,
2013-05-01 02:49:00,36.0,26.1,29.89,SSW,203,0.0,0.2,67,0.00,,,0.00,WUHU216HW,2013-05-01 06:49:00,
2013-05-01 02:54:00,35.8,25.9,29.89,SSW,203,0.0,0.0,67,0.00,,,0.00,WUHU216HW,2013-05-01 06:54:00,
2013-05-01 02:59:00,35.6,25.7,29.90,SSW,203,0.0,0.0,67,0.00,,,0.00,WUHU216HW,2013-05-01 06:59:00,
2013-05-01 03:04:00,35.6,26.1,29.90,SSW,203,0.0,0.0,68,0.00,,,0.00,WUHU216HW,2013-05-01 07:04:00,
2013-05-01 03:09:00,35.5,25.9,29.90,SSW,203,0.0,0.0,68,0.00,,,0.00,WUHU216HW,2013-05-01 07:09:00,
2013-05-01 03:15:00,35.3,25.7,29.90,SSW,203,0.0,0.0,68,0.00,,,0.00,WUHU216HW,2013-05-01 07:15:00,
2013-05-01 03:20:00,35.1,25.6,29.90,SSW,203,0.0,0.0,68,0.00,,,0.00,WUHU216HW,2013-05-01 07:20:00,
2013-05-01 03:25:00,34.9,25.4,29.90,SSW,203,0.4,0.4,68,0.00,,,0.00,WUHU216HW,2013-05-01 07:25:00,
2013-05-01 03:30:00,34.9,25.4,29.91,SSW,203,0.0,0.4,68,0.00,,,0.00,WUHU216HW,2013-05-01 07:30:00,
2013-05-01 03:35:00,34.9,25.7,29.91,SSW,203,0.0,0.0,69,0.00,,,0.00,WUHU216HW,2013-05-01 07:35:00,
2013-05-01 03:40:00,34.7,25.6,29.91,SSW,203,0.0,0.0,69,0.00,,,0.00,WUHU216HW,2013-05-01 07:40:00,
2013-05-01 03:45:00,34.9,25.7,29.91,SSW,203,0.4,0.9,69,0.00,,,0.00,WUHU216HW,2013-05-01 07:45:00,
2013-05-01 03:50:00,34.7,25.6,29.91,SSW,203,0.4,0.9,69,0.00,,,0.00,WUHU216HW,2013-05-01 07:50:00,
2013-05-01 03:55:00,34.7,25.9,29.91,SSW,203,0.0,0.7,70,0.00,,,0.00,WUHU216HW,2013-05-01 07:55:00,
2013-05-01 04:01:00,34.6,25.7,29.92,SSW,203,0.4,0.7,70,0.00,,,0.00,WUHU216HW,2013-05-01 08:01:00,
2013-05-01 04:06:00,34.4,25.6,29.92,SSW,203,0.4,0.9,70,0.00,,,0.00,WUHU216HW,2013-05-01 08:06:00,
2013-05-01 04:11:00,34.2,25.4,29.92,SSW,203,0.0,0.9,70,0.00,,,0.00,WUHU216HW,2013-05-01 08:11:00,
2013-05-01 04:16:00,34.2,25.4,29.92,SSW,203,0.2,0.4,70,0.00,,,0.00,WUHU216HW,2013-05-01 08:16:00,
2013-05-01 04:21:00,34.0,25.2,29.92,SSW,203,0.0,0.4,70,0.00,,,0.00,WUHU216HW,2013-05-01 08:21:00,
2013-05-01 04:26:00,34.0,25.2,29.92,SSW,203,0.0,0.2,70,0.00,,,0.00,WUHU216HW,2013-05-01 08:26:00,
2013-05-01 04:31:00,33.8,25.4,29.92,SSW,203,0.0,0.0,71,0.00,,,0.00,WUHU216HW,2013-05-01 08:31:00,
2013-05-01 04:37:00,33.7,25.2,29.92,SSW,203,0.0,0.0,71,0.00,,,0.00,WUHU216HW,2013-05-01 08:37:00,
2013-05-01 04:42:00,33.5,25.0,29.91,SSW,203,0.0,0.4,71,0.00,,,0.00,WUHU216HW,2013-05-01 08:42:00,
2013-05-01 04:47:00,33.5,25.4,29.91,SSW,203,0.0,0.4,72,0.00,,,0.00,WUHU216HW,2013-05-01 08:47:00,
2013-05-01 04:52:00,33.5,25.4,29.91,SSW,203,0.0,0.0,72,0.00,,,0.00,WUHU216HW,2013-05-01 08:52:00,
2013-05-01 04:57:00,33.5,25.4,29.92,SSW,203,0.0,0.0,72,0.00,,,0.00,WUHU216HW,2013-05-01 08:57:00,
2013-05-01 05:02:00,33.1,25.0,29.92,SSW,203,0.0,0.0,72,0.00,,,0.00,WUHU216HW,2013-05-01 09:02:00,
2013-05-01 05:07:00,33.1,25.4,29.92,SSW,203,0.4,0.4,73,0.00,,,0.00,WUHU216HW,2013-05-01 09:07:00,
2013-05-01 05:12:00,32.9,25.2,29.92,SSW,203,0.4,0.4,73,0.00,,,0.00,WUHU216HW,2013-05-01 09:12:00,
2013-05-01 05:17:00,32.9,25.2,29.92,SSW,203,0.9,1.1,73,0.00,,,0.00,WUHU216HW,2013-05-01 09:17:00,
2013-05-01 05:23:00,32.8,25.0,29.92,SSW,203,0.0,1.1,73,0.00,,,0.00,WUHU216HW,2013-05-01 09:23:00,
2013-05-01 05:28:00,32.8,25.0,29.92,SSW,203,1.1,1.1,73,0.00,,,0.00,WUHU216HW,2013-05-01 09:28:00,
2013-05-01 05:33:00,32.8,25.0,29.92,SSW,203,1.1,1.1,73,0.00,,,0.00,WUHU216HW,2013-05-01 09:33:00,
2013-05-01 05:38:00,32.8,25.0,29.92,SSW,203,0.4,1.1,73,0.00,,,0.00,WUHU216HW,2013-05-01 09:38:00,
2013-05-01 05:43:00,32.8,25.0,29.92,SSW,203,0.0,1.1,73,0.00,,,0.00,WUHU216HW,2013-05-01 09:43:00,
2013-05-01 05:48:00,32.4,24.7,29.92,SSW,203,0.0,0.4,73,0.00,,,0.00,WUHU216HW,2013-05-01 09:48:00,
2013-05-01 05:53:00,32.4,25.0,29.92,SSW,203,0.0,0.0,74,0.00,,,0.00,WUHU216HW,2013-05-01 09:53:00,
2013-05-01 05:59:00,32.2,24.8,29.92,SSW,203,0.0,0.0,74,0.00,,,0.00,WUHU216HW,2013-05-01 09:59:00,
2013-05-01 06:04:00,32.2,24.8,29.92,SSW,203,0.0,0.0,74,0.00,,,0.00,WUHU216HW,2013-05-01 10:04:00,
2013-05-01 06:09:00,32.2,25.2,29.92,SSW,203,0.0,0.0,75,0.00,,,0.00,WUHU216HW,2013-05-01 10:09:00,
2013-05-01 06:14:00,32.4,25.4,29.92,SSW,203,0.0,0.4,75,0.00,,,0.00,WUHU216HW,2013-05-01 10:14:00,
2013-05-01 06:19:00,32.8,26.0,29.93,SSW,203,0.4,0.7,76,0.00,,,0.00,WUHU216HW,2013-05-01 10:19:00,
2013-05-01 06:24:00,34.2,27.6,29.93,SSW,203,0.4,0.7,77,0.00,,,0.00,WUHU216HW,2013-05-01 10:24:00,
2013-05-01 06:29:00,36.4,29.8,29.93,South,180,0.0,0.9,77,0.00,,,0.00,WUHU216HW,2013-05-01 10:29:00,
2013-05-01 06:34:00,40.0,32.9,29.93,South,180,0.0,0.9,76,0.00,,,0.00,WUHU216HW,2013-05-01 10:34:00,
2013-05-01 06:39:00,43.4,35.3,29.93,South,180,0.0,0.0,73,0.00,,,0.00,WUHU216HW,2013-05-01 10:39:00,
2013-05-01 06:44:00,47.0,37.4,29.94,South,180,0.0,0.0,69,0.00,,,0.00,WUHU216HW,2013-05-01 10:44:00,
2013-05-01 06:50:00,49.9,38.9,29.94,South,180,0.0,0.0,66,0.00,,,0.00,WUHU216HW,2013-05-01 10:50:00,
2013-05-01 06:55:00,52.2,40.0,29.94,South,180,0.0,0.0,63,0.00,,,0.00,WUHU216HW,2013-05-01 10:55:00,
2013-05-01 07:00:00,54.5,40.5,29.94,South,180,0.0,0.9,59,0.00,,,0.00,WUHU216HW,2013-05-01 11:00:00,
2013-05-01 07:05:00,56.7,40.7,29.94,South,180,0.0,0.9,55,0.00,,,0.00,WUHU216HW,2013-05-01 11:05:00,
2013-05-01 07:10:00,58.5,41.4,29.94,South,180,0.0,0.0,53,0.00,,,0.00,WUHU216HW,2013-05-01 11:10:00,
2013-05-01 07:15:00,60.7,41.9,29.94,South,180,0.0,0.0,50,0.00,,,0.00,WUHU216HW,2013-05-01 11:15:00,
2013-05-01 07:20:00,61.4,41.5,29.94,South,180,0.0,0.0,48,0.00,,,0.00,WUHU216HW,2013-05-01 11:20:00,
2013-05-01 07:25:00,61.9,40.2,29.95,South,180,0.0,0.0,45,0.00,,,0.00,WUHU216HW,2013-05-01 11:25:00,
2013-05-01 07:30:00,61.9,39.1,29.94,East,90,0.0,1.1,43,0.00,,,0.00,WUHU216HW,2013-05-01 11:30:00,
2013-05-01 07:35:00,62.8,39.9,29.95,ESE,113,0.7,1.1,43,0.00,,,0.00,WUHU216HW,2013-05-01 11:35:00,
2013-05-01 07:40:00,64.1,39.9,29.95,East,90,0.0,1.1,41,0.00,,,0.00,WUHU216HW,2013-05-01 11:40:00,
2013-05-01 07:45:00,64.8,40.0,29.95,ENE,68,0.0,1.1,40,0.00,,,0.00,WUHU216HW,2013-05-01 11:45:00,
2013-05-01 07:50:00,65.2,39.5,29.95,ENE,68,0.0,1.1,39,0.00,,,0.00,WUHU216HW,2013-05-01 11:50:00,
2013-05-01 07:56:00,65.5,39.9,29.95,NE,45,1.1,1.8,39,0.00,,,0.00,WUHU216HW,2013-05-01 11:56:00,
2013-05-01 08:01:00,65.2,38.1,29.95,NE,45,1.1,1.8,37,0.00,,,0.00,WUHU216HW,2013-05-01 12:01:00,
2013-05-01 08:06:00,65.2,36.6,29.95,NNE,23,1.6,1.8,35,0.00,,,0.00,WUHU216HW,2013-05-01 12:06:00,
2013-05-01 08:11:00,64.8,35.7,29.95,ENE,68,1.1,1.8,34,0.00,,,0.00,WUHU216HW,2013-05-01 12:11:00,
2013-05-01 08:16:00,64.3,34.4,29.96,NE,45,0.2,2.0,33,0.00,,,0.00,WUHU216HW,2013-05-01 12:16:00,
2013-05-01 08:21:00,64.4,37.4,29.96,ESE,113,0.2,2.0,37,0.00,,,0.00,WUHU216HW,2013-05-01 12:21:00,
2013-05-01 08:26:00,65.0,35.0,29.96,North,0,1.1,1.8,33,0.00,,,0.00,WUHU216HW,2013-05-01 12:26:00,
2013-05-01 08:32:00,64.1,36.4,29.96,ESE,113,0.2,2.5,36,0.00,,,0.00,WUHU216HW,2013-05-01 12:32:00,
2013-05-01 08:37:00,64.6,35.5,29.96,NE,45,1.1,2.7,34,0.00,,,0.00,WUHU216HW,2013-05-01 12:37:00,
2013-05-01 08:42:00,65.2,35.9,29.96,NNE,23,1.6,2.7,34,0.00,,,0.00,WUHU216HW,2013-05-01 12:42:00,
2013-05-01 08:47:00,65.9,36.5,29.96,East,90,1.6,3.1,34,0.00,,,0.00,WUHU216HW,2013-05-01 12:47:00,
2013-05-01 08:52:00,65.9,37.3,29.96,NE,45,1.6,3.1,35,0.00,,,0.00,WUHU216HW,2013-05-01 12:52:00,
2013-05-01 08:57:00,66.6,37.2,29.96,SE,135,0.9,1.8,34,0.00,,,0.00,WUHU216HW,2013-05-01 12:57:00,
2013-05-01 09:02:00,67.3,37.1,29.97,ENE,68,0.9,2.5,33,0.00,,,0.00,WUHU216HW,2013-05-01 13:02:00,
2013-05-01 09:07:00,67.5,37.3,29.97,East,90,1.6,2.5,33,0.00,,,0.00,WUHU216HW,2013-05-01 13:07:00,
2013-05-01 09:12:00,67.3,37.1,29.96,SE,135,1.1,2.7,33,0.00,,,0.00,WUHU216HW,2013-05-01 13:12:00,
2013-05-01 09:17:00,67.3,33.9,29.97,SSE,158,1.6,3.4,29,0.00,,,0.00,WUHU216HW,2013-05-01 13:17:00,
2013-05-01 09:22:00,67.7,36.6,29.96,SSW,203,1.1,3.4,32,0.00,,,0.00,WUHU216HW,2013-05-01 13:22:00,
2013-05-01 09:27:00,67.3,35.7,29.97,East,90,0.7,2.5,31,0.00,,,0.00,WUHU216HW,2013-05-01 13:27:00,
2013-05-01 09:33:00,67.0,33.6,29.97,SSW,203,3.4,3.4,29,0.00,,,0.00,WUHU216HW,2013-05-01 13:33:00,
2013-05-01 09:38:00,66.6,35.0,29.97,South,180,1.3,3.4,31,0.00,,,0.00,WUHU216HW,2013-05-01 13:38:00,
2013-05-01 09:43:00,66.8,34.5,29.97,SSW,203,0.0,3.6,30,0.00,,,0.00,WUHU216HW,2013-05-01 13:43:00,
2013-05-01 09:48:00,67.0,32.6,29.97,NE,45,0.7,3.6,28,0.00,,,0.00,WUHU216HW,2013-05-01 13:48:00,
2013-05-01 09:53:00,67.0,33.6,29.97,ESE,113,1.1,2.9,29,0.00,,,0.00,WUHU216HW,2013-05-01 13:53:00,
2013-05-01 09:58:00,67.1,34.7,29.97,North,0,1.1,2.9,30,0.00,,,0.00,WUHU216HW,2013-05-01 13:58:00,
2013-05-01 10:03:00,66.8,33.5,29.97,SW,225,0.7,4.0,29,0.00,,,0.00,WUHU216HW,2013-05-01 14:03:00,
2013-05-01 10:08:00,67.3,33.9,29.97,SE,135,0.9,4.0,29,0.00,,,0.00,WUHU216HW,2013-05-01 14:08:00,
2013-05-01 10:13:00,67.9,34.3,29.97,SSE,158,1.3,4.0,29,0.00,,,0.00,WUHU216HW,2013-05-01 14:13:00,
2013-05-01 10:18:00,67.9,33.3,29.97,NE,45,3.4,4.0,28,0.00,,,0.00,WUHU216HW,2013-05-01 14:18:00,
2013-05-01 10:24:00,67.7,34.2,29.97,NNW,338,0.9,3.4,29,0.00,,,0.00,WUHU216HW,2013-05-01 14:24:00,
2013-05-01 10:29:00,68.6,34.9,29.97,SSE,158,0.9,2.7,29,0.00,,,0.00,WUHU216HW,2013-05-01 14:29:00,
2013-05-01 10:34:00,69.1,35.5,29.97,West,270,1.3,4.7,29,0.00,,,0.00,WUHU216HW,2013-05-01 14:34:00,
2013-05-01 10:39:00,68.8,35.1,29.97,ENE,68,2.5,4.7,29,0.00,,,0.00,WUHU216HW,2013-05-01 14:39:00,
2013-05-01 10:44:00,68.8,34.1,29.97,NE,45,2.0,5.4,28,0.00,,,0.00,WUHU216HW,2013-05-01 14:44:00,
2013-05-01 10:49:00,69.1,34.5,29.97,North,0,0.9,5.4,28,0.00,,,0.00,WUHU216HW,2013-05-01 14:49:00,
2013-05-01 10:54:00,69.7,34.9,29.97,SE,135,1.3,2.9,28,0.00,,,0.00,WUHU216HW,2013-05-01 14:54:00,
2013-05-01 11:00:00,69.8,36.1,29.97,NE,45,2.7,3.8,29,0.00,,,0.00,WUHU216HW,2013-05-01 15:00:00,
2013-05-01 11:04:00,69.5,32.8,29.97,NNW,338,0.7,5.6,26,0.00,,,0.00,WUHU216HW,2013-05-01 15:04:00,
2013-05-01 11:10:00,68.9,34.3,29.97,NE,45,2.2,5.6,28,0.00,,,0.00,WUHU216HW,2013-05-01 15:10:00,
2013-05-01 11:15:00,69.7,34.9,29.97,ENE,68,5.1,5.1,28,0.00,,,0.00,WUHU216HW,2013-05-01 15:15:00,
2013-05-01 11:20:00,69.3,32.6,29.97,ENE,68,1.8,5.1,26,0.00,,,0.00,WUHU216HW,2013-05-01 15:20:00,
2013-05-01 11:25:00,69.8,35.1,29.96,SW,225,1.1,4.7,28,0.00,,,0.00,WUHU216HW,2013-05-01 15:25:00,
2013-05-01 11:30:00,70.7,35.8,29.96,SW,225,1.1,3.4,28,0.00,,,0.00,WUHU216HW,2013-05-01 15:30:00,
2013-05-01 11:35:00,71.8,36.8,29.96,WSW,248,1.1,4.7,28,0.00,,,0.00,WUHU216HW,2013-05-01 15:35:00,
2013-05-01 11:40:00,72.4,37.3,29.95,SE,135,3.1,4.7,28,0.00,,,0.00,WUHU216HW,2013-05-01 15:40:00,
2013-05-01 11:45:00,73.1,37.8,29.96,SSW,203,4.9,5.8,28,0.00,,,0.00,WUHU216HW,2013-05-01 15:45:00,
2013-05-01 11:50:00,73.6,38.3,29.96,SSE,158,5.6,5.8,28,0.00,,,0.00,WUHU216HW,2013-05-01 15:50:00,
2013-05-01 11:55:00,73.4,36.1,29.96,SW,225,3.1,8.5,26,0.00,,,0.00,WUHU216HW,2013-05-01 15:55:00,
2013-05-01 12:01:00,73.1,35.8,29.95,SSW,203,2.7,8.5,26,0.00,,,0.00,WUHU216HW,2013-05-01 16:01:00,
2013-05-01 12:06:00,73.1,35.8,29.95,WNW,293,1.3,3.8,26,0.00,,,0.00,WUHU216HW,2013-05-01 16:06:00,
2013-05-01 12:11:00,73.1,34.8,29.95,SSE,158,3.4,3.6,25,0.00,,,0.00,WUHU216HW,2013-05-01 16:11:00,
2013-05-01 12:16:00,73.1,35.8,29.95,SE,135,4.0,5.4,26,0.00,,,0.00,WUHU216HW,2013-05-01 16:16:00,
2013-05-01 12:21:00,73.8,36.5,29.94,ESE,113,3.6,5.4,26,0.00,,,0.00,WUHU216HW,2013-05-01 16:21:00,
2013-05-01 12:26:00,74.0,35.6,29.94,NNE,23,5.4,5.4,25,0.00,,,0.00,WUHU216HW,2013-05-01 16:26:00,
2013-05-01 12:31:00,72.4,33.1,29.94,North,0,0.7,7.4,24,0.00,,,0.00,WUHU216HW,2013-05-01 16:31:00,
2013-05-01 12:36:00,72.4,34.2,29.94,ENE,68,2.5,7.4,25,0.00,,,0.00,WUHU216HW,2013-05-01 16:36:00,
2013-05-01 12:41:00,72.7,35.5,29.94,SSE,158,1.8,5.4,26,0.00,,,0.00,WUHU216HW,2013-05-01 16:41:00,
2013-05-01 12:46:00,73.8,36.5,29.94,WNW,293,0.9,3.4,26,0.00,,,0.00,WUHU216HW,2013-05-01 16:46:00,
2013-05-01 12:52:00,72.9,35.6,29.94,ENE,68,4.0,4.0,26,0.00,,,0.00,WUHU216HW,2013-05-01 16:52:00,
2013-05-01 12:57:00,72.9,35.6,29.94,ENE,68,2.5,8.3,26,0.00,,,0.00,WUHU216HW,2013-05-01 16:57:00,
2013-05-01 13:02:00,73.1,34.8,29.94,ENE,68,3.8,8.3,25,0.00,,,0.00,WUHU216HW,2013-05-01 17:02:00,
2013-05-01 13:07:00,73.1,35.8,29.94,East,90,1.8,6.3,26,0.00,,,0.00,WUHU216HW,2013-05-01 17:07:00,
2013-05-01 13:12:00,73.6,35.3,29.94,SSE,158,2.0,6.3,25,0.00,,,0.00,WUHU216HW,2013-05-01 17:12:00,
2013-05-01 13:17:00,74.5,37.1,29.94,SSW,203,3.4,7.6,26,0.00,,,0.00,WUHU216HW,2013-05-01 17:17:00,
2013-05-01 13:22:00,75.2,36.6,29.94,SW,225,1.8,7.6,25,0.00,,,0.00,WUHU216HW,2013-05-01 17:22:00,
2013-05-01 13:28:00,75.4,36.8,29.94,SSW,203,7.2,7.2,25,0.00,,,0.00,WUHU216HW,2013-05-01 17:28:00,
2013-05-01 13:33:00,76.0,37.3,29.94,WSW,248,0.9,7.2,25,0.00,,,0.00,WUHU216HW,2013-05-01 17:33:00,
2013-05-01 13:38:00,75.4,36.8,29.94,SE,135,2.9,6.9,25,0.00,,,0.00,WUHU216HW,2013-05-01 17:38:00,
2013-05-01 13:43:00,76.0,37.3,29.94,SSE,158,4.0,6.9,25,0.00,,,0.00,WUHU216HW,2013-05-01 17:43:00,
2013-05-01 13:48:00,76.3,35.5,29.94,ESE,113,2.0,4.7,23,0.00,,,0.00,WUHU216HW,2013-05-01 17:48:00,
2013-05-01 13:53:00,76.1,37.4,29.94,South,180,4.0,4.3,25,0.00,,,0.00,WUHU216HW,2013-05-01 17:53:00,
2013-05-01 13:58:00,76.7,37.9,29.94,South,180,1.8,4.5,25,0.00,,,0.00,WUHU216HW,2013-05-01 17:58:00,
2013-05-01 14:03:00,76.9,37.0,29.94,SSE,158,2.2,4.5,24,0.00,,,0.00,WUHU216HW,2013-05-01 18:03:00,
2013-05-01 14:09:00,77.0,36.1,29.93,SSW,203,3.4,6.0,23,0.00,,,0.00,WUHU216HW,2013-05-01 18:09:00,
2013-05-01 14:14:00,77.4,36.4,29.93,NW,315,1.6,6.0,23,0.00,,,0.00,WUHU216HW,2013-05-01 18:14:00,
2013-05-01 14:19:00,77.2,37.3,29.93,SSW,203,2.5,4.9,24,0.00,,,0.00,WUHU216HW,2013-05-01 18:19:00,
2013-05-01 14:24:00,77.6,37.5,29.93,SSW,203,5.1,5.8,24,0.00,,,0.00,WUHU216HW,2013-05-01 18:24:00,
2013-05-01 14:29:00,78.1,39.1,29.93,ENE,68,1.1,5.8,25,0.00,,,0.00,WUHU216HW,2013-05-01 18:29:00,
2013-05-01 14:34:00,78.8,36.5,29.93,SSE,158,1.8,5.1,22,0.00,,,0.00,WUHU216HW,2013-05-01 18:34:00,
2013-05-01 14:39:00,77.6,35.5,29.93,SSW,203,0.7,3.8,22,0.00,,,0.00,WUHU216HW,2013-05-01 18:39:00,
2013-05-01 14:44:00,77.2,35.2,29.93,SSE,158,2.9,4.0,22,0.00,,,0.00,WUHU216HW,2013-05-01 18:44:00,
2013-05-01 14:50:00,77.0,36.1,29.93,SE,135,1.1,5.8,23,0.00,,,0.00,WUHU216HW,2013-05-01 18:50:00,
2013-05-01 14:55:00,76.3,35.5,29.93,South,180,2.2,5.8,23,0.00,,,0.00,WUHU216HW,2013-05-01 18:55:00,
2013-05-01 15:00:00,76.3,35.5,29.93,SSW,203,4.3,4.7,23,0.00,,,0.00,WUHU216HW,2013-05-01 19:00:00,
2013-05-01 15:05:00,76.7,36.8,29.93,South,180,0.9,6.5,24,0.00,,,0.00,WUHU216HW,2013-05-01 19:05:00,
2013-05-01 15:10:00,76.5,35.7,29.92,SSW,203,3.8,6.5,23,0.00,,,0.00,WUHU216HW,2013-05-01 19:10:00,
2013-05-01 15:15:00,76.7,36.8,29.92,NW,315,1.6,3.8,24,0.00,,,0.00,WUHU216HW,2013-05-01 19:15:00,
2013-05-01 15:20:00,76.7,36.8,29.92,SW,225,3.8,3.8,24,0.00,,,0.00,WUHU216HW,2013-05-01 19:20:00,
2013-05-01 15:25:00,76.7,37.9,29.93,South,180,3.4,4.0,25,0.00,,,0.00,WUHU216HW,2013-05-01 19:25:00,
2013-05-01 15:31:00,76.0,38.3,29.92,ENE,68,2.2,5.1,26,0.00,,,0.00,WUHU216HW,2013-05-01 19:31:00,
2013-05-01 15:36:00,76.0,38.3,29.92,East,90,1.3,5.1,26,0.00,,,0.00,WUHU216HW,2013-05-01 19:36:00,
2013-05-01 15:41:00,75.8,37.1,29.92,East,90,2.5,7.6,25,0.00,,,0.00,WUHU216HW,2013-05-01 19:41:00,
2013-05-01 15:46:00,75.1,37.5,29.92,WSW,248,1.8,7.6,26,0.00,,,0.00,WUHU216HW,2013-05-01 19:46:00,
2013-05-01 15:51:00,75.2,37.6,29.92,SSW,203,4.3,6.3,26,0.00,,,0.00,WUHU216HW,2013-05-01 19:51:00,
2013-05-01 15:56:00,75.6,38.0,29.92,SW,225,2.2,6.5,26,0.00,,,0.00,WUHU216HW,2013-05-01 19:56:00,
2013-05-01 16:01:00,76.3,38.6,29.93,ENE,68,2.7,6.5,26,0.00,,,0.00,WUHU216HW,2013-05-01 20:01:00,
2013-05-01 16:06:00,76.3,36.6,29.92,ESE,113,3.4,5.6,24,0.00,,,0.00,WUHU216HW,2013-05-01 20:06:00,
2013-05-01 16:11:00,76.5,35.7,29.93,South,180,4.7,5.6,23,0.00,,,0.00,WUHU216HW,2013-05-01 20:11:00,
2013-05-01 16:17:00,76.5,36.6,29.92,SW,225,3.1,5.8,24,0.00,,,0.00,WUHU216HW,2013-05-01 20:17:00,
2013-05-01 16:22:00,77.0,37.1,29.93,SSE,158,2.9,5.8,24,0.00,,,0.00,WUHU216HW,2013-05-01 20:22:00,
2013-05-01 16:27:00,76.1,36.4,29.93,SE,135,1.6,5.4,24,0.00,,,0.00,WUHU216HW,2013-05-01 20:27:00,
2013-05-01 16:32:00,74.9,35.3,29.93,SSW,203,5.1,5.1,24,0.00,,,0.00,WUHU216HW,2013-05-01 20:32:00,
2013-05-01 16:37:00,74.5,36.0,29.93,SW,225,4.0,5.1,25,0.00,,,0.00,WUHU216HW,2013-05-01 20:37:00,
2013-05-01 16:42:00,74.7,36.2,29.93,SW,225,5.1,5.8,25,0.00,,,0.00,WUHU216HW,2013-05-01 20:42:00,
2013-05-01 16:47:00,74.5,36.0,29.93,SSE,158,3.4,5.8,25,0.00,,,0.00,WUHU216HW,2013-05-01 20:47:00,
2013-05-01 16:53:00,74.5,36.0,29.93,SSE,158,3.4,5.1,25,0.00,,,0.00,WUHU216HW,2013-05-01 20:53:00,
2013-05-01 16:58:00,74.5,36.0,29.93,SSE,158,3.4,3.4,25,0.00,,,0.00,WUHU216HW,2013-05-01 20:58:00,
2013-05-01 17:03:00,72.4,35.2,29.92,ENE,68,1.6,3.4,26,0.00,,,0.00,WUHU216HW,2013-05-01 21:03:00,
2013-05-01 17:08:00,72.9,35.6,29.93,SE,135,2.5,4.7,26,0.00,,,0.00,WUHU216HW,2013-05-01 21:08:00,
2013-05-01 17:13:00,72.9,35.6,29.93,ESE,113,2.5,4.7,26,0.00,,,0.00,WUHU216HW,2013-05-01 21:13:00,
2013-05-01 17:18:00,72.0,33.8,29.93,SW,225,2.2,6.5,25,0.00,,,0.00,WUHU216HW,2013-05-01 21:18:00,
2013-05-01 17:23:00,71.8,34.7,29.93,ESE,113,2.5,6.5,26,0.00,,,0.00,WUHU216HW,2013-05-01 21:23:00,
2013-05-01 17:28:00,72.4,35.2,29.93,NE,45,2.5,4.7,26,0.00,,,0.00,WUHU216HW,2013-05-01 21:28:00,
2013-05-01 17:33:00,72.0,33.8,29.94,ENE,68,1.6,6.3,25,0.00,,,0.00,WUHU216HW,2013-05-01 21:33:00,
2013-05-01 17:38:00,71.3,34.3,29.94,East,90,1.1,6.3,26,0.00,,,0.00,WUHU216HW,2013-05-01 21:38:00,
2013-05-01 17:44:00,71.6,35.7,29.94,SW,225,0.4,4.3,27,0.00,,,0.00,WUHU216HW,2013-05-01 21:44:00,
2013-05-01 17:49:00,72.4,35.2,29.94,SW,225,1.8,2.9,26,0.00,,,0.00,WUHU216HW,2013-05-01 21:49:00,
2013-05-01 17:54:00,71.5,34.5,29.94,SSE,158,0.9,3.8,26,0.00,,,0.00,WUHU216HW,2013-05-01 21:54:00,
2013-05-01 17:59:00,70.7,35.8,29.94,SW,225,3.4,3.8,28,0.00,,,0.00,WUHU216HW,2013-05-01 21:59:00,
2013-05-01 18:04:00,70.0,35.2,29.94,South,180,0.4,4.7,28,0.00,,,0.00,WUHU216HW,2013-05-01 22:04:00,
2013-05-01 18:09:00,71.3,36.4,29.94,SSW,203,2.2,4.7,28,0.00,,,0.00,WUHU216HW,2013-05-01 22:09:00,
2013-05-01 18:14:00,71.8,34.7,29.94,ESE,113,1.1,2.5,26,0.00,,,0.00,WUHU216HW,2013-05-01 22:14:00,
2013-05-01 18:19:00,71.5,35.5,29.94,SSE,158,1.8,2.7,27,0.00,,,0.00,WUHU216HW,2013-05-01 22:19:00,
2013-05-01 18:24:00,72.4,36.2,29.94,SSE,158,1.6,3.6,27,0.00,,,0.00,WUHU216HW,2013-05-01 22:24:00,
2013-05-01 18:29:00,73.3,36.0,29.94,SSW,203,0.2,3.6,26,0.00,,,0.00,WUHU216HW,2013-05-01 22:29:00,
2013-05-01 18:34:00,73.3,36.0,29.95,SSE,158,0.2,4.0,26,0.00,,,0.00,WUHU216HW,2013-05-01 22:34:00,
2013-05-01 18:39:00,72.0,34.9,29.95,SSE,158,1.8,4.0,26,0.00,,,0.00,WUHU216HW,2013-05-01 22:39:00,
2013-05-01 18:44:00,71.3,34.3,29.95,ESE,113,1.1,2.5,26,0.00,,,0.00,WUHU216HW,2013-05-01 22:44:00,
2013-05-01 18:50:00,70.7,33.9,29.95,East,90,1.8,2.5,26,0.00,,,0.00,WUHU216HW,2013-05-01 22:50:00,
2013-05-01 18:55:00,69.3,33.6,29.95,South,180,0.7,3.4,27,0.00,,,0.00,WUHU216HW,2013-05-01 22:55:00,
2013-05-01 19:00:00,68.4,33.9,29.95,ESE,113,0.0,4.3,28,0.00,,,0.00,WUHU216HW,2013-05-01 23:00:00,
2013-05-01 19:05:00,67.7,33.2,29.96,South,180,1.1,4.3,28,0.00,,,0.00,WUHU216HW,2013-05-01 23:05:00,
2013-05-01 19:10:00,66.6,33.3,29.96,South,180,0.0,3.6,29,0.00,,,0.00,WUHU216HW,2013-05-01 23:10:00,
2013-05-01 19:15:00,65.5,32.4,29.96,SSW,203,1.1,3.8,29,0.00,,,0.00,WUHU216HW,2013-05-01 23:15:00,
2013-05-01 19:20:00,64.6,32.6,29.96,SSW,203,0.0,3.8,30,0.00,,,0.00,WUHU216HW,2013-05-01 23:20:00,
2013-05-01 19:25:00,63.9,31.0,29.97,East,90,0.0,2.5,29,0.00,,,0.00,WUHU216HW,2013-05-01 23:25:00,
2013-05-01 19:30:00,63.4,31.4,29.96,SW,225,0.4,2.0,30,0.00,,,0.00,WUHU216HW,2013-05-01 23:30:00,
2013-05-01 19:35:00,62.6,31.5,29.96,NE,45,0.2,1.8,31,0.00,,,0.00,WUHU216HW,2013-05-01 23:35:00,
2013-05-01 19:41:00,62.3,31.1,29.97,South,180,0.0,1.8,31,0.00,,,0.00,WUHU216HW,2013-05-01 23:41:00,
2013-05-01 19:46:00,61.6,31.2,29.97,ESE,113,1.6,2.0,32,0.00,,,0.00,WUHU216HW,2013-05-01 23:46:00,
2013-05-01 19:51:00,61.0,30.8,29.97,SE,135,0.0,2.0,32,0.00,,,0.00,WUHU216HW,2013-05-01 23:51:00,
2013-05-01 19:56:00,60.5,31.1,29.97,WSW,248,0.0,1.6,33,0.00,,,0.00,WUHU216HW,2013-05-01 23:56:00,
2013-05-01 20:01:00,59.8,30.4,29.97,SW,225,0.0,0.9,33,0.00,,,0.00,WUHU216HW,2013-05-02 00:01:00,
2013-05-01 20:06:00,59.0,32.0,29.97,West,270,0.4,0.7,36,0.00,,,0.00,WUHU216HW,2013-05-02 00:06:00,
2013-05-01 20:11:00,58.3,31.3,29.97,SW,225,0.0,1.1,36,0.00,,,0.00,WUHU216HW,2013-05-02 00:11:00,
2013-05-01 20:16:00,57.8,30.8,29.97,SW,225,0.0,1.1,36,0.00,,,0.00,WUHU216HW,2013-05-02 00:16:00,
2013-05-01 20:22:00,57.1,30.9,29.97,SW,225,0.0,0.0,37,0.00,,,0.00,WUHU216HW,2013-05-02 00:22:00,
2013-05-01 20:27:00,56.5,30.3,29.97,SW,225,0.0,0.4,37,0.00,,,0.00,WUHU216HW,2013-05-02 00:27:00,
2013-05-01 20:32:00,55.8,30.4,29.97,SW,225,0.0,0.9,38,0.00,,,0.00,WUHU216HW,2013-05-02 00:32:00,
2013-05-01 20:37:00,55.1,30.5,29.97,SW,225,0.0,0.9,39,0.00,,,0.00,WUHU216HW,2013-05-02 00:37:00,
2013-05-01 20:42:00,54.5,30.7,29.97,SSW,203,0.0,0.4,40,0.00,,,0.00,WUHU216HW,2013-05-02 00:42:00,
2013-05-01 20:47:00,54.0,30.8,29.97,SSW,203,0.0,0.4,41,0.00,,,0.00,WUHU216HW,2013-05-02 00:47:00,
2013-05-01 20:52:00,53.3,30.7,29.97,SSW,203,0.0,0.0,42,0.00,,,0.00,WUHU216HW,2013-05-02 00:52:00,
2013-05-01 20:57:00,52.7,30.8,29.97,SSW,203,0.0,0.0,43,0.00,,,0.00,WUHU216HW,2013-05-02 00:57:00,
2013-05-01 21:02:00,52.4,30.4,29.98,SSW,203,0.0,0.0,43,0.00,,,0.00,WUHU216HW,2013-05-02 01:02:00,
2013-05-01 21:07:00,51.8,30.5,29.97,SSW,203,0.7,1.1,44,0.00,,,0.00,WUHU216HW,2013-05-02 01:07:00,
2013-05-01 21:13:00,51.3,30.6,29.97,SSW,203,0.0,1.1,45,0.00,,,0.00,WUHU216HW,2013-05-02 01:13:00,
2013-05-01 21:18:00,50.8,30.6,29.97,SSW,203,0.0,1.1,46,0.00,,,0.00,WUHU216HW,2013-05-02 01:18:00,
2013-05-01 21:23:00,50.4,30.3,29.97,SSW,203,0.7,1.6,46,0.00,,,0.00,WUHU216HW,2013-05-02 01:23:00,
2013-05-01 21:28:00,49.9,30.3,29.97,SSW,203,0.0,1.6,47,0.00,,,0.00,WUHU216HW,2013-05-02 01:28:00,
2013-05-01 21:33:00,49.5,30.1,29.97,SSW,203,0.0,0.7,47,0.00,,,0.00,WUHU216HW,2013-05-02 01:33:00,
2013-05-01 21:38:00,49.1,30.3,29.97,SSW,203,0.7,0.9,48,0.00,,,0.00,WUHU216HW,2013-05-02 01:38:00,
2013-05-01 21:43:00,48.8,30.4,29.97,SSW,203,0.2,0.9,49,0.00,,,0.00,WUHU216HW,2013-05-02 01:43:00,
2013-05-01 21:48:00,48.6,30.3,29.97,SSW,203,0.0,0.7,49,0.00,,,0.00,WUHU216HW,2013-05-02 01:48:00,
2013-05-01 21:53:00,48.2,30.4,29.98,SSW,203,0.0,0.2,50,0.00,,,0.00,WUHU216HW,2013-05-02 01:53:00,
2013-05-01 21:58:00,47.9,30.6,29.98,SSW,203,0.0,0.0,51,0.00,,,0.00,WUHU216HW,2013-05-02 01:58:00,
2013-05-01 22:04:00,47.5,30.3,29.98,SSW,203,0.0,0.0,51,0.00,,,0.00,WUHU216HW,2013-05-02 02:04:00,
2013-05-01 22:09:00,47.2,30.3,29.98,SSW,203,0.0,0.0,52,0.00,,,0.00,WUHU216HW,2013-05-02 02:09:00,
2013-05-01 22:14:00,47.0,30.3,29.98,SSW,203,0.0,0.0,52,0.00,,,0.00,WUHU216HW,2013-05-02 02:14:00,
2013-05-01 22:19:00,46.8,30.5,29.98,SSW,203,0.7,0.7,53,0.00,,,0.00,WUHU216HW,2013-05-02 02:19:00,
2013-05-01 22:24:00,46.6,30.8,29.98,SSW,203,1.1,1.1,54,0.00,,,0.00,WUHU216HW,2013-05-02 02:24:00,
2013-05-01 22:29:00,46.4,30.6,29.97,South,180,0.9,1.6,54,0.00,,,0.00,WUHU216HW,2013-05-02 02:29:00,
2013-05-01 22:34:00,46.4,31.1,29.97,SSW,203,0.9,1.6,55,0.00,,,0.00,WUHU216HW,2013-05-02 02:34:00,
2013-05-01 22:39:00,46.1,30.7,29.97,SSW,203,0.7,1.6,55,0.00,,,0.00,WUHU216HW,2013-05-02 02:39:00,
2013-05-01 22:44:00,45.9,31.1,29.97,SSW,203,0.9,1.6,56,0.00,,,0.00,WUHU216HW,2013-05-02 02:44:00,
2013-05-01 22:50:00,45.7,31.3,29.97,SSW,203,1.1,1.3,57,0.00,,,0.00,WUHU216HW,2013-05-02 02:50:00,
2013-05-01 22:55:00,45.5,31.1,29.97,SSW,203,0.0,1.1,57,0.00,,,0.00,WUHU216HW,2013-05-02 02:55:00,
2013-05-01 23:00:00,45.4,31.0,29.97,SSW,203,0.0,1.1,57,0.00,,,0.00,WUHU216HW,2013-05-02 03:00:00,
2013-05-01 23:05:00,45.2,31.2,29.97,South,180,0.0,1.1,58,0.00,,,0.00,WUHU216HW,2013-05-02 03:05:00,
2013-05-01 23:10:00,45.9,32.9,29.97,SSW,203,0.4,2.0,60,0.00,,,0.00,WUHU216HW,2013-05-02 03:10:00,
2013-05-01 23:15:00,46.4,32.9,29.96,SW,225,0.7,2.0,59,0.00,,,0.00,WUHU216HW,2013-05-02 03:15:00,
2013-05-01 23:20:00,46.8,33.2,29.96,SSW,203,1.1,1.6,59,0.00,,,0.00,WUHU216HW,2013-05-02 03:20:00,
2013-05-01 23:26:00,46.6,33.0,29.96,SSW,203,0.0,1.1,59,0.00,,,0.00,WUHU216HW,2013-05-02 03:26:00,
2013-05-01 23:31:00,46.6,33.5,29.96,WSW,248,1.1,2.2,60,0.00,,,0.00,WUHU216HW,2013-05-02 03:31:00,
2013-05-01 23:36:00,47.2,35.2,29.96,WSW,248,1.1,2.2,63,0.00,,,0.00,WUHU216HW,2013-05-02 03:36:00,
2013-05-01 23:41:00,47.9,35.9,29.95,WSW,248,1.1,2.2,63,0.00,,,0.00,WUHU216HW,2013-05-02 03:41:00,
2013-05-01 23:46:00,49.0,37.3,29.95,West,270,2.0,2.5,64,0.00,,,0.00,WUHU216HW,2013-05-02 03:46:00,
2013-05-01 23:51:00,49.7,38.0,29.95,WSW,248,1.3,2.5,64,0.00,,,0.00,WUHU216HW,2013-05-02 03:51:00,
2013-05-01 23:56:00,50.0,37.9,29.95,West,270,0.4,2.5,63,0.00,,,0.00,WUHU216HW,2013-05-02 03:56:00,